"Pseudo-MPEC" for C1CHM75

Created 2026 Mar 22 8:35:07 UT using Find_Orb

Click here for an explanation of pseudo-MPECs

 
 Astrometry: 
     C1CHM75*1C2026 02 25.36635512 07 39.054+29 54 34.88   ~2P9Kx      VNEOCPV00
     C1CHM75 1C2026 02 25.37194812 07 38.734+29 54 41.54   ~2P9K 22.98GVNEOCPV00
     C1CHM75 1C2026 02 25.37754212 07 38.420+29 54 48.35   ~2P9Kx      VNEOCPV00
     C1CHM75 1C2026 02 27.46645812 05 27.740+30 47 11.72   ~2RBZ 22.77GVNEOCPV00
     C1CHM75 1C2026 02 27.46840412 05 27.618+30 47 14.53   ~2RBZ 22.33GVNEOCPV00
     C1CHM75 1C2026 02 27.47035012 05 27.550+30 47 16.91   ~2RBZ 22.62GVNEOCPV00
     C1CHM75 1C2026 02 27.47229612 05 27.442+30 47 19.36   ~2RBZ 22.60GVNEOCPV00

Station data:
(V00) Kitt Peak-Bok  (N31.963125 W111.600190)  US/Arizona. Measurers T.
   Beuden, V. F. Carvajal, D. Fay, J. B. Fazekas, D. C. Fuls, A. R. Gibbs, A.
   D. Grauer, H. Gröller, J. K. Hogan, R. A. Kowalski, S. M. Larson, G. J.
   Leonard, D. Rankin, R. L. Seaman, F. C. Shelly, K. W. Wierzchoś. 2.25-m
   reflector + 4x4K mosaic CCD.

Orbital elements:  C1CHM75
   Perihelion 2025 Oct 30.201950 +/- 273 TT =  4:50:48.4 (JD 2460978.701950)
Epoch 2026 Feb 27.0 TT = JDT 2461098.5   Earth MOID: 0.3105      AutoNEOCP
M  19.130835566 +/- 100             (J2000 ecliptic)
n   0.159692378 +/- 0.12            Peri.  301.611507 +/- 55
a   3.364701877 +/- 1.68            Node   135.943770 +/- 23
e   0.66423551 +/- 0.143            Incl.   28.526229 +/- 21
P   6.17191                H 20.96  G  0.15   U 11.4  SR
q 1.129747379 +/- 0.435    Q 5.599656375 +/- 0.892
5 of 7 observations 2026 Feb. 25-27; mean residual 0".38
Residuals in arcseconds: 
260225 V00( .00   .00 )   260227 V00  .55-  .30+    260227 V00  .64+  .48-    
260225 V00  .00   .00     260227 V00  .45-  .30+    
260225 V00( .65+  1.9-)   260227 V00  .35+  .12-    

Ephemerides (geocentric):
Date (UTC) HH   RA             Dec           delta  r     elong  mag " sig PA
---- --------  ------------   ------------  ------ ------ -----  --- --------
2026 03 22 09  11 40 45.641   +36 38 19.17  1.1506 2.0330 142.4 23.7 5246  28
2026 03 22 10  11 40 43.308   +36 38 36.31  1.1512 2.0334 142.4 23.7 5261  28
2026 03 22 11  11 40 40.978   +36 38 53.38  1.1517 2.0337 142.3 23.7 5277  28
2026 03 22 12  11 40 38.651   +36 39 10.38  1.1522 2.0340 142.3 23.7 5292  28
2026 03 22 13  11 40 36.325   +36 39 27.32  1.1527 2.0344 142.3 23.7 5308  28
2026 03 22 14  11 40 34.003   +36 39 44.19  1.1533 2.0347 142.2 23.7 5323  28
2026 03 22 15  11 40 31.683   +36 40 00.99  1.1538 2.0351 142.2 23.7 5339  28
2026 03 22 16  11 40 29.366   +36 40 17.72  1.1543 2.0354 142.2 23.7 5354  29
2026 03 22 17  11 40 27.051   +36 40 34.39  1.1548 2.0358 142.2 23.7 5370  29
2026 03 22 18  11 40 24.739   +36 40 50.99  1.1554 2.0361 142.1 23.7 5385  29
2026 03 22 19  11 40 22.430   +36 41 07.52  1.1559 2.0365 142.1 23.7 5401  29
2026 03 22 20  11 40 20.123   +36 41 23.98  1.1564 2.0368 142.1 23.7 5417  29
2026 03 22 21  11 40 17.819   +36 41 40.38  1.1570 2.0371 142.1 23.7 5432  29
2026 03 22 22  11 40 15.518   +36 41 56.70  1.1575 2.0375 142.0 23.7 5448  29
2026 03 22 23  11 40 13.219   +36 42 12.97  1.1580 2.0378 142.0 23.7 5463  29
2026 03 23 00  11 40 10.923   +36 42 29.16  1.1585 2.0382 142.0 23.7 5479  29
2026 03 23 01  11 40 08.630   +36 42 45.29  1.1591 2.0385 141.9 23.7 5495  29
2026 03 23 02  11 40 06.339   +36 43 01.35  1.1596 2.0389 141.9 23.7 5510  29
2026 03 23 03  11 40 04.051   +36 43 17.34  1.1601 2.0392 141.9 23.7 5526  29
2026 03 23 04  11 40 01.765   +36 43 33.27  1.1607 2.0396 141.9 23.8 5542  29
2026 03 23 05  11 39 59.483   +36 43 49.13  1.1612 2.0399 141.8 23.8 5557  29
2026 03 23 06  11 39 57.203   +36 44 04.92  1.1617 2.0403 141.8 23.8 5573  29
2026 03 23 07  11 39 54.925   +36 44 20.65  1.1622 2.0406 141.8 23.8 5589  29
2026 03 23 08  11 39 52.651   +36 44 36.31  1.1628 2.0409 141.7 23.8 5605  29
2026 03 23 09  11 39 50.379   +36 44 51.90  1.1633 2.0413 141.7 23.8 5620  29
2026 03 23 10  11 39 48.109   +36 45 07.43  1.1638 2.0416 141.7 23.8 5636  29
2026 03 23 11  11 39 45.843   +36 45 22.89  1.1644 2.0420 141.7 23.8 5652  29
2026 03 23 12  11 39 43.579   +36 45 38.28  1.1649 2.0423 141.6 23.8 5668  29
2026 03 23 13  11 39 41.318   +36 45 53.61  1.1654 2.0427 141.6 23.8 5683  29
2026 03 23 14  11 39 39.059   +36 46 08.87  1.1660 2.0430 141.6 23.8 5699  29
2026 03 23 15  11 39 36.804   +36 46 24.07  1.1665 2.0434 141.5 23.8 5715  29
2026 03 23 16  11 39 34.551   +36 46 39.20  1.1670 2.0437 141.5 23.8 5731  29
2026 03 23 17  11 39 32.301   +36 46 54.26  1.1676 2.0440 141.5 23.8 5747  29
2026 03 23 18  11 39 30.053   +36 47 09.26  1.1681 2.0444 141.5 23.8 5763  29
2026 03 23 19  11 39 27.808   +36 47 24.19  1.1686 2.0447 141.4 23.8 5778  29
2026 03 23 20  11 39 25.567   +36 47 39.06  1.1692 2.0451 141.4 23.8 5794  29
2026 03 23 21  11 39 23.327   +36 47 53.86  1.1697 2.0454 141.4 23.8 5810  29
2026 03 23 22  11 39 21.091   +36 48 08.60  1.1702 2.0458 141.3 23.8 5826  29
2026 03 23 23  11 39 18.857   +36 48 23.27  1.1708 2.0461 141.3 23.8 5842  29
2026 03 24 00  11 39 16.626   +36 48 37.87  1.1713 2.0465 141.3 23.8 5858  29
2026 03 24 01  11 39 14.398   +36 48 52.41  1.1719 2.0468 141.3 23.8 5874  29
2026 03 24 02  11 39 12.173   +36 49 06.89  1.1724 2.0471 141.2 23.8 5890  29
2026 03 24 03  11 39 09.950   +36 49 21.29  1.1729 2.0475 141.2 23.8 5906  29
2026 03 24 04  11 39 07.730   +36 49 35.64  1.1735 2.0478 141.2 23.8 5921  29
2026 03 24 05  11 39 05.513   +36 49 49.92  1.1740 2.0482 141.1 23.8 5937  29
2026 03 24 06  11 39 03.299   +36 50 04.13  1.1745 2.0485 141.1 23.8 5953  29
2026 03 24 07  11 39 01.088   +36 50 18.28  1.1751 2.0489 141.1 23.8 5969  29
2026 03 24 08  11 38 58.879   +36 50 32.36  1.1756 2.0492 141.1 23.8 5985  29